Location: Newark
(43.0000°N, 1.6781°W)
Time: 10:44:22
(UTC+00:00)

Vanguard 1 Rocket - Pass Details

Date: 09 October 2022
Orbit: 650 x 4225 km, 34.3° (Epoch: 04 December)

Event Time Altitude Azimuth Distance (km) Brightness Sun altitude
Rises 18:34:09 0° 243° (WSW) 8,462 13.5 -11.8°
Reaches altitude 10° 18:40:16 10° 241° (WSW) 7,394 12.9 -12.9°
Maximum altitude 19:04:10 60° 170° (S) 3,531 10.2 -17.2°
Enters shadow 19:14:39 24° 101° (ESE) 3,987 10.0 -19.1°
